Bryce Canyon, UT

10:14 AM MST on December 12, 2019 (GMT -0700)
Bryce Canyon

Weather History for KBCE - October, 2019

Change the Weather History Date:

Monday, October 7, 2019

  Actual Average Record
Temperature  
Mean Temperature 40 °F -  
Max Temperature 64 °F 63 °F 78 °F (1979)
Min Temperature 16 °F 31 °F 16 °F (2019)
Degree Days  
Heating Degree Days 25    
Moisture  
Dew Point 3 °F    
Average Humidity 25    
Maximum Humidity 54    
Minimum Humidity 6    
Precipitation  
Precipitation 0.00 in - - ()
Sea Level Pressure  
Sea Level Pressure 30.19 in    
Wind  
Wind Speed 9 mph (SW)    
Max Wind Speed 15 mph    
Max Gust Speed 18 mph    
Visibility 10 miles    
Events      
Averages and records for this station are not official NWS values.
T = Trace of Precipitation, MM = Missing Value Source: NWS Daily Summary

Daily Weather History Graph

Daily Weather History Graph

Search for Another Location

Airport or City:

Astronomy

Oct. 07, 2019 Rise Set
Actual Time 7:29 AM MDT 7:02 PM MDT
Civil Twilight 7:03 AM MDT 7:29 PM MDT
Nautical Twilight 6:32 AM MDT 7:59 PM MDT
Astronomical Twilight 6:02 AM MDT 8:29 PM MDT
Moon 4:19 PM MDT (10/7) 1:33 AM MDT (10/7)
Length of Visible Light 12h 25m
Length of Day
11h 33m
Waxing Gibbous, 69% of the Moon is Illuminated
Oct 7
Waxing Gibbous
Oct 13
Full
Oct 21
Last Quarter
Oct 27
New
Nov 4
First Quarter

Hourly Weather History & Observations

Time (MDT) Temp. Windchill Dew Point Humidity Pressure Visibility Wind Dir Wind Speed Gust Speed Precip Events Conditions
12:53 AM 28.9 °F 19.2 °F 3.9 °F 35% 30.25 in 10.0 mi West 11.5 mph - N/A   Clear
1:53 AM 28.0 °F 17.5 °F 3.0 °F 34% 30.24 in 10.0 mi West 12.7 mph - N/A   Clear
2:53 AM 27.0 °F 16.1 °F 3.0 °F 36% 30.24 in 10.0 mi West 12.7 mph - N/A   Clear
3:53 AM 25.0 °F 15.5 °F 3.0 °F 39% 30.22 in 10.0 mi West 9.2 mph - N/A   Clear
4:53 AM 24.1 °F 16.0 °F 3.0 °F 40% 30.22 in 10.0 mi West 6.9 mph - N/A   Clear
5:53 AM 19.0 °F - 1.9 °F 47% 30.25 in 10.0 mi Calm Calm - N/A   Clear
6:53 AM 16.0 °F 8.8 °F 1.9 °F 54% 30.30 in 10.0 mi WSW 4.6 mph - N/A   Clear
7:53 AM 17.1 °F 11.7 °F 3.0 °F 54% 30.35 in 10.0 mi West 3.5 mph - N/A   Clear
8:53 AM 32.0 °F 28.7 °F 6.1 °F 34% 30.31 in 10.0 mi West 3.5 mph - N/A   Clear
9:53 AM 44.1 °F - 6.1 °F 21% 30.28 in 10.0 mi Calm Calm - N/A   Clear
10:53 AM 55.0 °F - -2.0 °F 10% 30.22 in 10.0 mi South 10.4 mph - N/A   Clear
11:53 AM 57.0 °F - -6.0 °F 8% 30.20 in 2.0 mi SSE 12.7 mph - N/A   Haze
12:02 PM 57.9 °F - -9.0 °F 6% 30.38 in 10.0 mi SE 11.5 mph - N/A   Clear
12:53 PM 59.0 °F - -9.9 °F 6% 30.17 in 10.0 mi SSE 11.5 mph - N/A   Clear
1:53 PM 62.1 °F - -5.1 °F 7% 30.14 in 10.0 mi SE 12.7 mph 18.4 mph N/A   Clear
2:53 PM 63.0 °F - 1.9 °F 9% 30.10 in 10.0 mi South 15.0 mph - N/A   Clear
3:53 PM 64.9 °F - 3.9 °F 9% 30.08 in 10.0 mi SE 12.7 mph - N/A   Clear
4:53 PM 64.9 °F - 6.1 °F 10% 30.07 in 10.0 mi SE 10.4 mph - N/A   Clear
5:53 PM 62.1 °F - 7.0 °F 11% 30.09 in 10.0 mi SSE 13.8 mph - N/A   Clear
6:53 PM 55.9 °F - 8.1 °F 15% 30.13 in 10.0 mi SSE 9.2 mph - N/A   Clear
7:53 PM 48.9 °F - 8.1 °F 19% 30.16 in 10.0 mi SSW 6.9 mph - N/A   Clear
8:53 PM 41.0 °F 38.0 °F 7.0 °F 25% 30.13 in 10.0 mi West 4.6 mph - N/A   Clear
9:53 PM 36.0 °F 32.1 °F 8.1 °F 31% 30.11 in 10.0 mi West 4.6 mph - N/A   Clear
10:53 PM 30.9 °F 25.2 °F 7.0 °F 37% 30.07 in 10.0 mi West 5.8 mph - N/A   Clear
11:53 PM 33.1 °F 26.9 °F 9.0 °F 37% 30.04 in 10.0 mi West 6.9 mph - N/A   Clear